CST,Max TemperatureF,Mean TemperatureF,Min TemperatureF,Max Dew PointF,MeanDew PointF,Min DewpointF,Max Humidity, Mean Humidity, Min Humidity, Max Sea Level PressureIn, Mean Sea Level PressureIn, Min Sea Level PressureIn, Max VisibilityMiles, Mean VisibilityMiles, Min VisibilityMiles, Max Wind SpeedMPH, Mean Wind SpeedMPH, Max Gust SpeedMPH,PrecipitationIn, CloudCover, Events, WindDirDegrees
2012-12-1,64,52,39,56,47,34,100,87,70,29.97,29.86,29.77,10,5,0,12,5,,0.00,6,Fog,184
2012-12-2,64,48,33,46,40,32,100,82,48,30.03,29.92,29.81,10,7,0,10,4,,0.00,0,Fog-Snow,179
2012-12-3,66,52,39,57,46,31,90,70,45,30.08,29.80,29.63,10,10,6,23,12,33,0.01,1,,253
2012-12-4,63,46,28,30,25,22,78,52,21,30.31,30.24,30.10,10,10,10,12,4,,0.00,0,,280
2012-12-5,61,44,27,31,25,21,78,53,23,30.32,30.17,29.97,10,10,9,20,7,30,0.00,0,,154
2012-12-6,51,47,43,40,35,29,80,66,54,29.98,29.93,29.87,10,10,10,14,6,,0.00,5,Rain,165
2012-12-7,46,40,30,38,33,25,89,74,60,29.97,29.93,29.88,10,10,10,12,5,,0.00,6,,5
2012-12-8,42,34,25,34,29,23,92,81,65,30.04,29.96,29.88,10,9,6,10,5,,0.00,5,,70
2012-12-9,39,28,17,37,25,7,100,76,51,30.14,29.96,29.83,10,6,2,23,7,33,0.00,7,Rain,313
2012-12-10,30,19,8,8,4,1,73,56,33,30.17,30.08,30.01,10,10,10,20,12,29,0.00,3,,282
2012-12-11,46,31,16,19,15,5,68,53,33,30.10,30.05,30.00,10,10,10,17,6,22,0.00,1,,248
2012-12-12,53,40,27,19,16,13,66,43,22,30.13,30.08,30.03,10,10,10,21,12,31,0.00,0,,186
2012-12-13,54,44,32,22,18,13,60,41,29,30.10,30.07,30.04,10,10,10,16,9,20,0.00,0,,173
2012-12-14,54,41,28,44,30,18,93,60,45,30.06,29.88,29.63,10,10,3,20,9,26,0.18,4,Rain,154
2012-12-15,50,42,34,45,41,32,100,86,74,29.75,29.59,29.45,10,9,5,23,13,32,0.10,7,Rain,257
2012-12-16,37,34,30,32,31,28,93,87,75,29.83,29.76,29.72,6,4,2,8,5,,0.00,7,,341
2012-12-17,44,36,27,32,28,25,100,89,55,29.81,29.74,29.63,10,5,0,9,4,,0.00,5,Fog,243
2012-12-18,51,40,30,34,31,27,85,70,50,29.89,29.71,29.54,10,10,10,18,8,29,0.00,1,,248
2012-12-19,37,34,32,34,32,29,93,88,76,29.90,29.72,29.60,10,7,2,22,10,30,0.24,6,Rain-Snow,54
2012-12-20,33,26,19,30,21,13,93,82,66,30.27,29.86,29.55,10,5,0,34,24,48,0.01,5,Fog-Snow,324
2012-12-21,34,24,14,22,15,9,84,72,56,30.39,30.31,30.24,10,10,10,8,4,,0.00,0,,159
2012-12-22,43,31,19,27,21,14,84,72,49,30.22,30.05,29.94,10,10,7,10,5,,0.00,0,,167
2012-12-23,28,22,15,21,16,11,88,80,69,30.07,30.02,29.98,9,7,5,12,8,,0.00,0,,347
2012-12-24,21,16,12,14,10,6,88,74,63,30.25,30.13,30.01,10,9,5,17,11,25,0.00,4,,347
2012-12-25,18,13,8,10,5,1,81,72,62,30.45,30.37,30.25,10,10,10,17,12,24,0.00,2,,1
2012-12-26,21,13,5,12,7,1,84,75,58,30.37,30.29,30.21,10,10,10,8,6,,0.00,0,,345
2012-12-27,28,20,12,22,17,8,88,80,72,30.19,30.06,29.95,10,10,7,16,8,24,0.00,7,Snow,92
2012-12-28,27,23,19,22,19,14,88,79,66,30.15,30.03,29.96,10,8,4,16,7,26,0.00,8,Snow,323
2012-12-29,35,24,12,20,15,9,92,74,52,30.30,30.24,30.11,10,10,6,13,9,18,0.00,3,,273
2012-12-30,46,31,16,24,19,12,84,63,35,30.31,30.18,30.07,10,10,10,24,7,33,0.00,0,,195
2012-12-31,33,26,19,23,18,13,89,79,66,30.26,30.17,30.09,10,4,1,14,9,21,0.00,8,Snow,17